Braunschweig Wolfsburg Airport EDVE

Flugplatz Daten

Name: Braunschweig Wolfsburg Airport

Ident: EDVE

Lat: 52,31919861

Long: 10,55609989

Platzhöhe: 295 ft

IataCode: BWE

City:

Metar

2022/08/15 19:20
EDVE 151920Z AUTO 00000KT 9999 FEW098/// BKN230/// 20/19 Q1005

Taf

Gewünschte Webcam nicht vorhanden? Dann fügen Sie eine hinzu. Sie wird dann so schnell wie möglich freigeschaltet
Url: Title: